User: anonymous   Login
Location: Unspecified
(0.0000°N, 0.0000°E)
Time: 02:55:59
(UTC+00:00)
Language:

NOAA 8 - Orbit

View from above orbital plane
View from above orbital plane
View from above satellite
View from above satellite

Ground track
Ground track

The orbit data is extracted from the following two-line orbital elements,

1 13923U 83022A   18113.55563388 +.00000039 +00000-0 +32777-4 0  9992
2 13923 098.5429 101.6727 0014758 335.9549 024.0942 14.28634690825957
Epoch (UTC): 23 April 2018 13:20:06
Eccentricity: 0.0014758
inclination: 98.5429°
perigee height: 786 km
apogee height: 807 km
right ascension of ascending node: 101.6727°
argument of perigee: 335.9549°
revolutions per day: 14.28634690
mean anomaly at epoch: 24.0942°
orbit number at epoch: 82595

The dashed part of the orbit path shows where the satellite is in the earth's shadow,  

DLR